EUTELSAT 16A

Last updated on Sun Jun 21 2026 00:03:05 GMT+0000 (Coordinated Universal Time)

1 37836U 11057A 26171.32383470 .00000099 00000+0 00000+0 0 9994 2 37836 0.0401 347.1884 0005674 102.0888 311.8462 1.00269662 7361
UTC large
Height (km)
Speed (km/s)
/
Latitude / Longitude
Inclination (degrees)
Orbital Period (minutes)
Azimuth
Elevation
Range (km)
Doppler Factor

Next 0 passes for location: London (51.5072 / 0.1276)

No passes found over London.
EUTELSAT 16A